Time,TemperatureF,DewpointF,PressureIn,WindDirection,WindDirectionDegrees,WindSpeedMPH,WindSpeedGustMPH,Humidity,HourlyPrecipIn,Conditions,Clouds,dailyrainin,SoftwareType,DateUTC
2014-01-24 00:00:00,51.9,24.8,30.19,NW,315,0.0,0.0,34,0.00,,,0.00,tws,2014-01-24 07:00:00,
2014-01-24 00:10:00,51.8,24.4,30.20,North,0,0.2,0.5,34,0.00,,,0.00,tws,2014-01-24 07:10:00,
2014-01-24 00:20:00,51.8,23.9,30.20,NNW,337,0.2,0.6,33,0.00,,,0.00,tws,2014-01-24 07:20:00,
2014-01-24 00:30:00,51.9,24.2,30.20,NW,315,3.3,5.0,33,0.00,,,0.00,tws,2014-01-24 07:30:00,
2014-01-24 00:40:00,52.0,23.8,30.20,West,270,5.4,7.3,32,0.00,,,0.00,tws,2014-01-24 07:40:00,
2014-01-24 00:50:00,52.6,23.8,30.20,WNW,292,6.7,7.6,32,0.00,,,0.00,tws,2014-01-24 07:50:00,
2014-01-24 01:00:00,53.6,24.0,30.20,NNW,337,6.6,8.9,31,0.00,,,0.00,tws,2014-01-24 08:00:00,
2014-01-24 01:10:00,54.3,24.2,30.20,WNW,292,7.7,8.8,30,0.00,,,0.00,tws,2014-01-24 08:10:00,
2014-01-24 01:20:00,54.6,24.1,30.20,WNW,292,6.2,7.7,30,0.00,,,0.00,tws,2014-01-24 08:20:00,
2014-01-24 01:30:00,54.7,24.1,30.21,North,0,3.9,4.8,30,0.00,,,0.00,tws,2014-01-24 08:30:00,
2014-01-24 01:40:00,54.7,23.9,30.22,NNE,22,3.6,5.4,29,0.00,,,0.00,tws,2014-01-24 08:40:00,
2014-01-24 01:50:00,54.6,24.0,30.22,NW,315,4.9,6.5,30,0.00,,,0.00,tws,2014-01-24 08:50:00,
2014-01-24 02:00:00,54.6,23.7,30.22,NW,315,6.3,7.6,29,0.00,,,0.00,tws,2014-01-24 09:00:00,
2014-01-24 02:10:00,54.7,23.6,30.22,NW,315,6.6,8.5,29,0.00,,,0.00,tws,2014-01-24 09:10:00,
2014-01-24 02:20:00,54.9,23.7,30.22,NNW,337,5.9,6.9,29,0.00,,,0.00,tws,2014-01-24 09:20:00,
2014-01-24 02:30:00,55.0,23.6,30.22,NNW,337,6.6,7.8,29,0.00,,,0.00,tws,2014-01-24 09:30:00,
2014-01-24 02:40:00,55.1,23.5,30.22,NW,315,6.8,7.6,29,0.00,,,0.00,tws,2014-01-24 09:40:00,
2014-01-24 02:50:00,55.1,23.4,30.22,WNW,292,6.1,8.5,28,0.00,,,0.00,tws,2014-01-24 09:50:00,
2014-01-24 03:00:00,55.0,23.4,30.22,West,270,7.0,8.7,28,0.00,,,0.00,tws,2014-01-24 10:00:00,
2014-01-24 03:10:00,54.9,23.1,30.22,NW,315,7.3,8.3,28,0.00,,,0.00,tws,2014-01-24 10:10:00,
2014-01-24 03:20:00,54.8,23.2,30.23,NW,315,6.4,8.0,28,0.00,,,0.00,tws,2014-01-24 10:20:00,
2014-01-24 03:30:00,54.5,23.1,30.22,WNW,292,6.5,8.4,29,0.00,,,0.00,tws,2014-01-24 10:30:00,
2014-01-24 03:40:00,54.2,23.0,30.24,WNW,292,6.7,8.3,29,0.00,,,0.00,tws,2014-01-24 10:40:00,
2014-01-24 03:50:00,53.9,22.8,30.22,NW,315,7.2,8.4,29,0.00,,,0.00,tws,2014-01-24 10:50:00,
2014-01-24 04:00:00,53.7,22.5,30.23,West,270,6.3,7.8,29,0.00,,,0.00,tws,2014-01-24 11:00:00,
2014-01-24 04:10:00,53.4,22.6,30.23,WNW,292,5.2,5.9,29,0.00,,,0.00,tws,2014-01-24 11:10:00,
2014-01-24 04:20:00,53.1,22.4,30.24,NNW,337,6.5,8.0,29,0.00,,,0.00,tws,2014-01-24 11:20:00,
2014-01-24 04:30:00,52.8,22.2,30.23,West,270,7.0,8.3,29,0.00,,,0.00,tws,2014-01-24 11:30:00,
2014-01-24 04:40:00,52.5,22.0,30.23,West,270,6.6,8.4,30,0.00,,,0.00,tws,2014-01-24 11:40:00,
2014-01-24 04:50:00,52.2,21.9,30.23,NNW,337,6.4,8.9,30,0.00,,,0.00,tws,2014-01-24 11:50:00,
2014-01-24 05:00:00,51.9,21.9,30.24,NW,315,6.4,8.3,30,0.00,,,0.00,tws,2014-01-24 12:00:00,
2014-01-24 05:10:00,51.7,21.9,30.23,West,270,5.9,6.8,30,0.00,,,0.00,tws,2014-01-24 12:10:00,
2014-01-24 05:20:00,51.6,21.9,30.24,WNW,292,7.4,8.8,31,0.00,,,0.00,tws,2014-01-24 12:20:00,
2014-01-24 05:30:00,51.4,22.0,30.24,WNW,292,7.8,9.7,31,0.00,,,0.00,tws,2014-01-24 12:30:00,
2014-01-24 05:40:00,51.3,22.0,30.24,West,270,7.6,9.7,31,0.00,,,0.00,tws,2014-01-24 12:40:00,
2014-01-24 05:50:00,51.3,22.1,30.24,West,270,7.5,9.1,31,0.00,,,0.00,tws,2014-01-24 12:50:00,
2014-01-24 06:00:00,51.2,22.0,30.25,NW,315,6.5,7.9,31,0.00,,,0.00,tws,2014-01-24 13:00:00,
2014-01-24 06:10:00,51.1,22.1,30.26,NNW,337,6.1,7.3,31,0.00,,,0.00,tws,2014-01-24 13:10:00,
2014-01-24 06:20:00,50.9,22.3,30.26,West,270,5.4,8.3,32,0.00,,,0.00,tws,2014-01-24 13:20:00,
2014-01-24 06:30:00,50.8,22.1,30.27,NW,315,5.4,6.8,32,0.00,,,0.00,tws,2014-01-24 13:30:00,
2014-01-24 06:40:00,50.7,22.2,30.26,NW,315,4.8,6.0,32,0.00,,,0.00,tws,2014-01-24 13:40:00,
2014-01-24 06:50:00,50.6,22.4,30.28,WNW,292,3.8,5.0,32,0.00,,,0.00,tws,2014-01-24 13:50:00,
2014-01-24 07:00:00,50.6,22.5,30.27,NW,315,3.6,5.3,32,0.00,,,0.00,tws,2014-01-24 14:00:00,
2014-01-24 07:20:00,50.3,22.3,30.28,West,270,5.5,7.4,33,0.00,,,0.00,tws,2014-01-24 14:20:00,
2014-01-24 07:30:00,50.1,22.4,30.28,West,270,4.9,7.0,33,0.00,,,0.00,tws,2014-01-24 14:30:00,
2014-01-24 07:40:00,49.9,22.4,30.28,WNW,292,4.4,6.5,33,0.00,,,0.00,tws,2014-01-24 14:40:00,
2014-01-24 08:00:00,49.8,22.5,30.29,NW,315,4.6,6.1,33,0.00,,,0.00,tws,2014-01-24 15:00:00,
2014-01-24 09:00:00,51.6,23.8,30.29,West,270,7.6,10.6,33,0.00,,,0.00,tws,2014-01-24 16:00:00,
2014-01-24 09:10:00,52.1,24.1,30.31,NW,315,7.4,8.5,33,0.00,,,0.00,tws,2014-01-24 16:10:00,
2014-01-24 09:20:00,53.1,24.5,30.31,NW,315,7.4,8.9,32,0.00,,,0.00,tws,2014-01-24 16:20:00,
2014-01-24 09:30:00,54.4,25.2,30.31,NW,315,6.9,9.1,31,0.00,,,0.00,tws,2014-01-24 16:30:00,
2014-01-24 09:40:00,55.6,25.4,30.32,NW,315,6.3,7.5,30,0.00,,,0.00,tws,2014-01-24 16:40:00,
2014-01-24 09:50:00,56.3,25.8,30.31,West,270,6.0,8.2,30,0.00,,,0.00,tws,2014-01-24 16:50:00,
2014-01-24 10:00:00,56.2,25.2,30.32,SE,135,5.6,8.4,29,0.00,,,0.00,tws,2014-01-24 17:00:00,
2014-01-24 10:10:00,55.8,24.9,30.32,South,180,5.3,7.3,29,0.00,,,0.00,tws,2014-01-24 17:10:00,
2014-01-24 10:20:00,55.6,24.9,30.33,NW,315,5.2,6.4,30,0.00,,,0.00,tws,2014-01-24 17:20:00,
2014-01-24 10:30:00,55.8,25.7,30.34,NW,315,4.4,5.7,31,0.00,,,0.00,tws,2014-01-24 17:30:00,
2014-01-24 10:40:00,56.5,26.3,30.33,NW,315,4.3,6.7,30,0.00,,,0.00,tws,2014-01-24 17:40:00,
2014-01-24 10:50:00,57.8,27.2,30.33,NW,315,4.3,6.6,30,0.00,,,0.00,tws,2014-01-24 17:50:00,
2014-01-24 11:00:00,59.4,28.5,30.34,NW,315,3.5,5.1,30,0.00,,,0.00,tws,2014-01-24 18:00:00,
2014-01-24 11:10:00,61.2,28.8,30.33,NW,315,4.7,6.7,28,0.00,,,0.00,tws,2014-01-24 18:10:00,
2014-01-24 11:20:00,62.5,28.6,30.33,NE,45,3.2,6.0,27,0.00,,,0.00,tws,2014-01-24 18:20:00,
2014-01-24 11:30:00,62.8,28.3,30.33,NE,45,2.4,3.6,26,0.00,,,0.00,tws,2014-01-24 18:30:00,
2014-01-24 11:40:00,62.8,27.8,30.32,East,90,2.1,3.1,26,0.00,,,0.00,tws,2014-01-24 18:40:00,
2014-01-24 11:50:00,62.7,27.7,30.31,SW,225,1.9,2.6,26,0.00,,,0.00,tws,2014-01-24 18:50:00,
2014-01-24 12:00:00,62.8,27.7,30.31,North,0,2.8,4.4,26,0.00,,,0.00,tws,2014-01-24 19:00:00,
2014-01-24 12:10:00,63.0,27.6,30.31,SW,225,2.8,3.8,25,0.00,,,0.00,tws,2014-01-24 19:10:00,
2014-01-24 12:20:00,63.3,27.3,30.31,NW,315,2.5,4.5,25,0.00,,,0.00,tws,2014-01-24 19:20:00,
2014-01-24 12:30:00,63.4,28.1,30.29,NW,315,2.2,4.3,26,0.00,,,0.00,tws,2014-01-24 19:30:00,
2014-01-24 12:40:00,63.7,28.3,30.29,North,0,1.9,3.7,25,0.00,,,0.00,tws,2014-01-24 19:40:00,
2014-01-24 12:50:00,64.2,28.7,30.28,SW,225,2.1,3.0,25,0.00,,,0.00,tws,2014-01-24 19:50:00,
2014-01-24 13:00:00,64.7,28.8,30.27,South,180,2.0,3.4,25,0.00,,,0.00,tws,2014-01-24 20:00:00,
2014-01-24 13:10:00,65.2,29.4,30.26,NW,315,2.8,4.0,25,0.00,,,0.00,tws,2014-01-24 20:10:00,
2014-01-24 13:20:00,65.4,29.7,30.25,NNE,22,1.7,2.8,25,0.00,,,0.00,tws,2014-01-24 20:20:00,
2014-01-24 13:30:00,65.7,29.7,30.24,ESE,112,1.7,3.0,25,0.00,,,0.00,tws,2014-01-24 20:30:00,
2014-01-24 13:40:00,65.9,29.4,30.24,East,90,1.9,3.2,25,0.00,,,0.00,tws,2014-01-24 20:40:00,
2014-01-24 13:50:00,66.0,29.5,30.24,SW,225,2.2,3.3,25,0.00,,,0.00,tws,2014-01-24 20:50:00,
2014-01-24 14:00:00,66.2,28.8,30.24,ESE,112,2.1,3.4,24,0.00,,,0.00,tws,2014-01-24 21:00:00,
2014-01-24 14:10:00,66.2,29.2,30.24,East,90,2.0,3.1,24,0.00,,,0.00,tws,2014-01-24 21:10:00,
2014-01-24 14:20:00,66.3,29.6,30.24,NE,45,2.5,3.2,24,0.00,,,0.00,tws,2014-01-24 21:20:00,
2014-01-24 14:30:00,66.2,29.1,30.24,ESE,112,3.1,4.3,24,0.00,,,0.00,tws,2014-01-24 21:30:00,
2014-01-24 14:40:00,66.0,29.1,30.24,East,90,2.3,3.9,24,0.00,,,0.00,tws,2014-01-24 21:40:00,
2014-01-24 14:50:00,66.0,29.3,30.24,East,90,3.2,4.5,24,0.00,,,0.00,tws,2014-01-24 21:50:00,
2014-01-24 15:00:00,66.0,28.7,30.24,East,90,3.6,4.4,24,0.00,,,0.00,tws,2014-01-24 22:00:00,
2014-01-24 15:10:00,65.8,28.5,30.24,SE,135,3.8,6.2,24,0.00,,,0.00,tws,2014-01-24 22:10:00,
2014-01-24 15:20:00,65.8,28.4,30.23,East,90,2.6,3.9,24,0.00,,,0.00,tws,2014-01-24 22:20:00,
2014-01-24 15:30:00,65.8,28.0,30.23,East,90,4.6,6.1,23,0.00,,,0.00,tws,2014-01-24 22:30:00,
2014-01-24 15:40:00,65.6,27.9,30.24,East,90,3.9,5.0,23,0.00,,,0.00,tws,2014-01-24 22:40:00,
2014-01-24 15:50:00,65.6,27.7,30.23,SE,135,3.6,5.6,23,0.00,,,0.00,tws,2014-01-24 22:50:00,
2014-01-24 16:00:00,65.6,27.9,30.23,ENE,67,3.0,4.0,23,0.00,,,0.00,tws,2014-01-24 23:00:00,
2014-01-24 16:10:00,65.7,28.8,30.23,East,90,2.7,3.8,24,0.00,,,0.00,tws,2014-01-24 23:10:00,
2014-01-24 16:20:00,65.8,28.5,30.23,East,90,2.2,4.2,24,0.00,,,0.00,tws,2014-01-24 23:20:00,
2014-01-24 16:30:00,65.7,29.4,30.23,NE,45,1.5,2.4,25,0.00,,,0.00,tws,2014-01-24 23:30:00,
2014-01-24 16:40:00,65.6,30.6,30.23,West,270,0.4,1.3,26,0.00,,,0.00,tws,2014-01-24 23:40:00,
2014-01-24 16:50:00,65.3,30.3,30.23,NW,315,0.4,1.7,26,0.00,,,0.00,tws,2014-01-24 23:50:00,
2014-01-24 17:00:00,65.0,29.6,30.24,NW,315,0.0,0.0,26,0.00,,,0.00,tws,2014-01-25 00:00:00,
2014-01-24 17:10:00,64.6,29.7,30.24,North,0,0.6,1.9,26,0.00,,,0.00,tws,2014-01-25 00:10:00,
2014-01-24 17:20:00,64.3,30.4,30.24,NW,315,2.5,2.9,27,0.00,,,0.00,tws,2014-01-25 00:20:00,
2014-01-24 17:30:00,64.0,30.5,30.23,NW,315,2.3,3.2,28,0.00,,,0.00,tws,2014-01-25 00:30:00,
2014-01-24 17:40:00,63.6,29.9,30.24,NW,315,1.7,2.6,27,0.00,,,0.00,tws,2014-01-25 00:40:00,
2014-01-24 17:50:00,63.2,29.2,30.24,North,0,0.2,1.0,27,0.00,,,0.00,tws,2014-01-25 00:50:00,
2014-01-24 18:00:00,62.9,29.0,30.25,SSW,202,0.8,2.1,27,0.00,,,0.00,tws,2014-01-25 01:00:00,
2014-01-24 18:10:00,62.5,28.6,30.26,NW,315,2.4,3.8,27,0.00,,,0.00,tws,2014-01-25 01:10:00,
2014-01-24 18:20:00,62.1,28.2,30.25,WNW,292,2.6,3.0,27,0.00,,,0.00,tws,2014-01-25 01:20:00,
2014-01-24 18:30:00,61.8,28.0,30.25,NW,315,2.6,3.6,27,0.00,,,0.00,tws,2014-01-25 01:30:00,
2014-01-24 18:40:00,61.5,27.3,30.26,West,270,3.1,4.0,26,0.00,,,0.00,tws,2014-01-25 01:40:00,
2014-01-24 18:50:00,61.3,27.0,30.25,NW,315,3.1,4.1,26,0.00,,,0.00,tws,2014-01-25 01:50:00,
2014-01-24 19:00:00,61.0,26.9,30.26,West,270,3.4,4.4,26,0.00,,,0.00,tws,2014-01-25 02:00:00,
2014-01-24 19:10:00,60.8,26.9,30.26,West,270,3.7,4.8,27,0.00,,,0.00,tws,2014-01-25 02:10:00,
2014-01-24 19:20:00,60.6,26.9,30.26,NE,45,2.3,3.4,27,0.00,,,0.00,tws,2014-01-25 02:20:00,
2014-01-24 19:30:00,60.3,26.2,30.26,NE,45,2.0,2.8,26,0.00,,,0.00,tws,2014-01-25 02:30:00,
2014-01-24 19:40:00,60.1,26.3,30.26,WNW,292,2.1,2.6,27,0.00,,,0.00,tws,2014-01-25 02:40:00,
2014-01-24 19:50:00,59.8,26.1,30.27,NNE,22,3.3,5.1,27,0.00,,,0.00,tws,2014-01-25 02:50:00,
2014-01-24 20:00:00,59.6,26.2,30.26,NW,315,2.9,4.1,27,0.00,,,0.00,tws,2014-01-25 03:00:00,
2014-01-24 20:10:00,59.4,26.3,30.26,NW,315,2.9,3.2,27,0.00,,,0.00,tws,2014-01-25 03:10:00,
2014-01-24 20:20:00,59.3,26.5,30.26,North,0,2.6,3.3,28,0.00,,,0.00,tws,2014-01-25 03:20:00,
2014-01-24 20:30:00,59.2,26.2,30.26,NW,315,2.4,2.7,27,0.00,,,0.00,tws,2014-01-25 03:30:00,
2014-01-24 20:40:00,59.0,26.4,30.26,NW,315,3.1,4.3,28,0.00,,,0.00,tws,2014-01-25 03:40:00,
2014-01-24 20:50:00,58.8,26.2,30.27,NW,315,3.9,5.6,28,0.00,,,0.00,tws,2014-01-25 03:50:00,
2014-01-24 21:00:00,58.6,25.6,30.26,WNW,292,4.3,5.7,27,0.00,,,0.00,tws,2014-01-25 04:00:00,
2014-01-24 21:10:00,58.5,25.8,30.26,North,0,3.2,4.0,28,0.00,,,0.00,tws,2014-01-25 04:10:00,
2014-01-24 21:20:00,58.4,25.7,30.26,NW,315,3.8,5.5,28,0.00,,,0.00,tws,2014-01-25 04:20:00,
2014-01-24 21:30:00,58.3,25.6,30.26,NW,315,5.3,7.2,28,0.00,,,0.00,tws,2014-01-25 04:30:00,
2014-01-24 21:40:00,58.3,25.6,30.27,NW,315,6.3,9.0,28,0.00,,,0.00,tws,2014-01-25 04:40:00,
2014-01-24 21:50:00,58.2,25.5,30.26,NW,315,5.9,8.1,28,0.00,,,0.00,tws,2014-01-25 04:50:00,
2014-01-24 22:00:00,58.2,25.3,30.26,NW,315,5.3,6.8,27,0.00,,,0.00,tws,2014-01-25 05:00:00,
2014-01-24 22:10:00,58.2,25.4,30.26,NW,315,4.8,6.1,28,0.00,,,0.00,tws,2014-01-25 05:10:00,
2014-01-24 22:20:00,58.2,25.4,30.26,NW,315,4.9,6.7,28,0.00,,,0.00,tws,2014-01-25 05:20:00,
2014-01-24 22:30:00,58.1,25.5,30.26,NW,315,3.8,5.6,28,0.00,,,0.00,tws,2014-01-25 05:30:00,
2014-01-24 22:40:00,58.1,25.5,30.26,NNW,337,4.1,4.6,28,0.00,,,0.00,tws,2014-01-25 05:40:00,
2014-01-24 22:50:00,57.9,25.6,30.26,NW,315,4.2,6.1,28,0.00,,,0.00,tws,2014-01-25 05:50:00,
2014-01-24 23:00:00,57.9,25.5,30.26,NW,315,5.6,7.1,28,0.00,,,0.00,tws,2014-01-25 06:00:00,
2014-01-24 23:10:00,57.9,25.5,30.26,NW,315,4.3,4.8,28,0.00,,,0.00,tws,2014-01-25 06:10:00,
2014-01-24 23:20:00,57.8,25.5,30.25,North,0,3.0,4.4,28,0.00,,,0.00,tws,2014-01-25 06:20:00,
2014-01-24 23:30:00,57.7,25.5,30.26,NNW,337,3.7,4.4,28,0.00,,,0.00,tws,2014-01-25 06:30:00,
2014-01-24 23:40:00,57.6,25.6,30.26,NW,315,4.3,5.2,28,0.00,,,0.00,tws,2014-01-25 06:40:00,
2014-01-24 23:50:00,57.4,25.4,30.25,NW,315,3.9,4.9,28,0.00,,,0.00,tws,2014-01-25 06:50:00,